Regional Weather Roundup
Issued by NWS Spokane, WA

Home | Current Version | Previous Version | Text Only | Print | Product List | Glossary On
Versions: 1 2 3 4 5 6 7 8 9 10 11 12 13 14 15 16 17 18 19 20 21 22 23 24 25 26 27 28 29 30 31 32 33 34 35 36 37 38 39 40 41 42 43 44 45 46 47 48 49 50
000
NZUS01 KOTX 170610
RWROTX
EASTERN WASHINGTON/NORTHERN IDAHO ROUNDUP
NATIONAL WEATHER SERVICE, SPOKANE WA
1100 PM PDT WED APR 16 2014

Note: "fair" indicated few or no clouds below 12,000 feet with no
significant weather and/or obstructions to visibility.

...NORTHEAST WASHINGTON AND NORTHERN IDAHO PANHANDLE...

CITY           SKY/WX    TMP DP  RH WIND       PRES   REMARKS
SPOKANE INTL   MOCLDY    46  39  76 S8        29.94F
SPOKANE DOWNTO CLOUDY    45  41  86 NE5       29.96F
COEUR D ALENE  CLOUDY    45  39  81 S8        29.97F
DEER PARK      CLOUDY    37  36  96 CALM      29.96S FOG
SANDPOINT      CLOUDY    43  43 100 CALM      29.97S

...SOUTHEAST WASHINGTON AND SOUTHERN IDAHO PANHANDLE...

CITY           SKY/WX    TMP DP  RH WIND       PRES   REMARKS
WALLA WALLA    CLOUDY    53  40  61 S5        29.97S
PULLMAN/MOSCOW CLOUDY    45  38  76 CALM      29.99F
LEWISTON       CLOUDY    51  34  52 S3        29.98S
LOWELL           N/A     46  41  82 N3        30.03S

...COLUMBIA BASIN...

CITY           SKY/WX    TMP DP  RH WIND       PRES   REMARKS
EPHRATA        CLOUDY    55  36  48 NW10      29.91F
MOSES LAKE     CLOUDY    56  40  55 SW5       29.93F
TRI CITIES     CLOUDY    58  40  51 SW7       29.95S
HERMISTON      CLOUDY    54  41  61 S12       29.95F
PENDLETON      CLOUDY    52  38  58 S8        29.97S

...EAST SLOPES CASCADES...

CITY           SKY/WX    TMP DP  RH WIND       PRES   REMARKS
THE DALLES     CLOUDY    56  43  61 W8        29.98F
YAKIMA         CLOUDY    54  42  64 CALM      29.93F
ELLENSBURG     CLOUDY    48  39  71 W12       29.93F
WENATCHEE      CLOUDY    54  35  48 E3        29.92F
OMAK           CLOUDY    54  35  48 S7        29.90S

...SOUTHERN BRITISH COLUMBIA...

CITY           SKY/WX    TMP DP  RH WIND       PRES   REMARKS
PENTICTON      CLOUDY    46  39  76 VRB2      29.88F
CRANBROOK      MOCLDY    43  34  70 S10       29.89S

...WESTERN MONTANA...

CITY           SKY/WX    TMP DP  RH WIND       PRES   REMARKS
MISSOULA       CLOUDY    43  33  68 E3        29.99F

...NEIGHBORING CITIES...

CITY           SKY/WX    TMP DP  RH WIND       PRES   REMARKS
SEATTLE        LGT RAIN  50  48  93 S9        29.96F



USA.gov is the U.S. government's official web portal to all federal, state and local government web resources and services.